Bronx, New York, United States (10451)
Lat: 40.85N, Lon: 73.87W
Wx Zone: NYZ073
Local Info
Past Weather Observations for Today

NOTE: This archive is for the closest National Weather Service station to Bronx. Information may differ from the station used for current weather conditions.

Click here for Long-term Archive

Time Weather Temperature Dewpoint Humidity Pressure Winds Precip Visibility
17:51
Overcast
Fog And Mist
37°F / 3°C 34°F / 1°C 87% 29.8 in
(1009 mb)
N 16.1 mph
(N 26 kph)
0.04 in
(1.02 mm)
3SM
16:51
Overcast
Light Rain
37°F / 3°C 34°F / 1°C 87% 29.8 in
(1009 mb)
N 15 mph
(N 24 kph)
0.05 in
(1.27 mm)
5SM
15:51
Overcast
Light Rain
37°F / 3°C 34°F / 1°C 87% 29.83 in
(1010 mb)
N 16.1 mph
(N 26 kph)
0.06 in
(1.52 mm)
4SM
15:47
Overcast
Light Rain
37°F / 3°C 34°F / 1°C 87% 29.83 in
(1010 mb)
N 15 mph
(N 24 kph)
0.06 in
(1.52 mm)
5SM
15:25
Overcast
Rain
36°F / 2°C 34°F / 1°C 93% 29.86 in
(1011 mb)
NE 12.7 mph
(NE 20 kph)
0.03 in
(0.76 mm)
2SM
14:51
Overcast
Fog And Mist
36°F / 2°C 34°F / 1°C 93% 29.86 in
(1011 mb)
NE 15 mph
(NE 24 kph)
0.10 in
(2.54 mm)
4SM
13:51
Overcast
Fog And Mist
36°F / 2°C 34°F / 1°C 93% 29.95 in
(1014 mb)
NE 12.7 mph
(NE 20 kph)
0.12 in
(3.05 mm)
1 1/2SM
13:01
Overcast
Fog And Mist
34°F / 1°C 32°F / 0°C 93% 30.01 in
(1016 mb)
N 10.4 mph
(N 17 kph)
0.03 in
(0.76 mm)
1 1/2SM
12:51
Overcast
Light Snow
34°F / 1°C 34°F / 1°C 100% 30.04 in
(1017 mb)
N 8.1 mph
(N 13 kph)
0.13 in
(3.30 mm)
1 1/2SM
12:47
Overcast
Light Snow
34°F / 1°C 34°F / 1°C 100% 30.04 in
(1017 mb)
N 6.9 mph
(N 11 kph)
0.12 in
(3.05 mm)
1 1/2SM
11:51
Overcast
Fog And Mist
34°F / 1°C 34°F / 1°C 100% 30.04 in
(1017 mb)
NE 10.4 mph
(NE 17 kph)
0.10 in
(2.54 mm)
1 1/2SM
11:37
Overcast
Fog And Mist
36°F / 2°C 34°F / 1°C 93% 30.04 in
(1017 mb)
NNE 10.4 mph
(NNE 17 kph)
0.07 in
(1.78 mm)
1 3/4SM
11:02
Overcast
Light Snow
34°F / 1°C 32°F / 0°C 93% 30.09 in
(1019 mb)
NE 12.7 mph
(NE 20 kph)
0.02 in
(0.51 mm)
1 1/4SM
10:51
Overcast
Light Snow
34°F / 1°C 32°F / 0°C 93% 30.12 in
(1020 mb)
NNE 5.8 mph
(NNE 9 kph)
0.12 in
(3.05 mm)
1 1/4SM
10:47
Overcast
Light Snow
36°F / 2°C 34°F / 1°C 93% 30.15 in
(1021 mb)
N 5.8 mph
(N 9 kph)
0.11 in
(2.79 mm)
1 1/4SM
10:21
Overcast
Fog And Mist
36°F / 2°C 34°F / 1°C 93% 30.15 in
(1021 mb)
NNE 8.1 mph
(NNE 13 kph)
0.05 in
(1.27 mm)
1 3/4SM
09:51
Overcast
Fog And Mist
37°F / 3°C 34°F / 1°C 87% 30.12 in
(1020 mb)
NE 12.7 mph
(NE 20 kph)
0.12 in
(3.05 mm)
2SM
09:40
Overcast
Fog And Mist
37°F / 3°C 34°F / 1°C 87% 30.15 in
(1021 mb)
NE 12.7 mph
(NE 20 kph)
0.10 in
(2.54 mm)
2SM
09:18
Overcast
Rain
37°F / 3°C 36°F / 2°C 93% 30.15 in
(1021 mb)
NE 15 mph
(NE 24 kph)
0.06 in
(1.52 mm)
2SM
08:51
Overcast
Rain
37°F / 3°C 34°F / 1°C 87% 30.12 in
(1020 mb)
NE 16.1 mph
(NE 26 kph)
0.07 in
(1.78 mm)
2SM
08:10
Overcast
Rain
39°F / 4°C 34°F / 1°C 81% 30.15 in
(1021 mb)
NE 16.1 mph
(NE 26 kph)
0.02 in
(0.51 mm)
2SM
07:51
Overcast
Light Rain
41°F / 5°C 34°F / 1°C 76% 30.18 in
(1022 mb)
NE 12.7 mph
(NE 20 kph)
0.06 in
(1.52 mm)
7SM
06:51
Overcast
Light Rain
45°F / 7°C 32°F / 0°C 61% 30.15 in
(1021 mb)
NE 11.5 mph
(NE 19 kph)
0.00 in
(0.00 mm)
10SM
05:51
Overcast
Light Rain
46°F / 8°C 30°F / -1°C 53% 30.12 in
(1020 mb)
NNE 11.5 mph
(NNE 19 kph)
0.00 in
(0.00 mm)
10SM
04:51
Overcast
48°F / 9°C 28°F / -2°C 46% 30.12 in
(1020 mb)
N 10.4 mph
(N 17 kph)
- 10SM
03:51
Overcast
48°F / 9°C 30°F / -1°C 50% 30.15 in
(1021 mb)
NNW 9.2 mph
(NNW 15 kph)
- 10SM
02:51
Overcast
50°F / 10°C 30°F / -1°C 47% 30.21 in
(1023 mb)
NW 11.5 mph
(NW 19 kph)
- 10SM
01:51
Overcast
52°F / 11°C 28°F / -2°C 41% 30.18 in
(1022 mb)
NW 11.5 mph
(NW 19 kph)
- 10SM
00:51
Overcast
52°F / 11°C 28°F / -2°C 41% 30.15 in
(1021 mb)
NW 8.1 mph
(NW 13 kph)
- 10SM
Time Weather Temperature Dewpoint Humidity Pressure Winds Precip Visibility


Weather for websites

WeatherForYou.com, LLC is not responsible for any damages or problems caused by this service. Current weather conditions are obtained from the closest station including government and personal stations which may have varying degrees of accuracy. Weather forecasts are derived from the NOAA NDFD. Like all things, this site belongs to Jesus Christ... He just trusts me to maintain it. If you have any questions or comments email webmaster@weatherforyou.com

Copyright © 2014, WeatherForYou.com LLC. All rights reserved.